Location: Goll?ig?dem
(16.6773°N, 80.7332°E)
Time: 20:05:15
(UTC+00:00)

Cosmos 1782 Rocket - Pass Details

Date: 19 May 2025
Orbit: 601 x 625 km, 82.5° (Epoch: 23 June)

Event Time Altitude Azimuth Distance (km) Brightness Sun altitude
Rises 22:52:12 0° 342° (NNW) 2,855 7.1 -16.7°
Reaches altitude 10° 22:54:32 10° 334° (NNW) 1,954 6.1 -16.2°
Maximum altitude 22:58:28 35° 268° (W) 984 4.1 -15.4°
Enters shadow 23:00:38 22° 217° (SW) 1,353 4.8 -14.9°
